| time (UTC) | temp C | wind direction | speed KPH | gust KPH | rain 1hr cm | rain 24hr cm | rain mn cm | humidity % | barometer mb |
| 20260906110012 | 30 | 223 | 4.8 | 16.1 | 0.00 | 0.00 | 0.00 | 24 | 1027.2 |
| 20260906104514 | 31 | 129 | 3.2 | 12.9 | 0.00 | 0.00 | 0.00 | 24 | 1027.3 |
| 20260906103014 | 31 | 137 | 6.4 | 14.5 | 0.00 | 0.00 | 0.00 | 21 | 1027.5 |
| 20260906101524 | 30 | 244 | 6.4 | 14.5 | 0.00 | 0.00 | 0.00 | 21 | 1027.6 |
| 20260906100005 | 30 | 182 | 6.4 | 12.9 | 0.00 | 0.00 | 0.00 | 23 | 1027.6 |
| 20260906094513 | 30 | 151 | 8.0 | 16.1 | 0.00 | 0.00 | 0.00 | 24 | 1027.7 |
| 20260906093014 | 30 | 123 | 4.8 | 11.3 | 0.00 | 0.00 | 0.00 | 25 | 1027.8 |
| 20260906091527 | 29 | 115 | 4.8 | 9.7 | 0.00 | 0.00 | 0.00 | 26 | 1027.8 |
| 20260906090027 | 29 | 147 | 4.8 | 14.5 | 0.00 | 0.00 | 0.00 | 25 | 1027.9 |
| 20260906084516 | 29 | 58 | 4.8 | 9.7 | 0.00 | 0.00 | 0.00 | 25 | 1027.7 |
| 20260906083014 | 29 | 125 | 0.0 | 14.5 | 0.00 | 0.00 | 0.00 | 26 | 1027.7 |
| 20260906081531 | 28 | 46 | 6.4 | 14.5 | 0.00 | 0.00 | 0.00 | 26 | 1027.5 |
| 20260906080020 | 28 | 60 | 6.4 | 14.5 | 0.00 | 0.00 | 0.00 | 27 | 1027.6 |
| 20260906074528 | 28 | 40 | 4.8 | 12.9 | 0.00 | 0.00 | 0.00 | 27 | 1027.5 |
| 20260906073007 | 27 | 87 | 6.4 | 11.3 | 0.00 | 0.00 | 0.00 | 28 | 1027.3 |
| 20260906071512 | 27 | 167 | 4.8 | 11.3 | 0.00 | 0.00 | 0.00 | 30 | 1027.2 |
| 20260906070017 | 27 | 96 | 3.2 | 8.0 | 0.00 | 0.00 | 0.00 | 32 | 1027.1 |
| 20260906064532 | 27 | 68 | 1.6 | 6.4 | 0.00 | 0.00 | 0.00 | 35 | 1027.0 |
| 20260906063030 | 27 | 64 | 3.2 | 4.8 | 0.00 | 0.00 | 0.00 | 34 | 1027.0 |
| 20260906061507 | 26 | 96 | 1.6 | 4.8 | 0.00 | 0.00 | 0.00 | 32 | 1026.9 |
| 20260906060011 | 26 | 65 | 1.6 | 6.4 | 0.00 | 0.00 | 0.00 | 33 | 1026.7 |
| 20260906054517 | 25 | 332 | 1.6 | 6.4 | 0.00 | 0.00 | 0.00 | 35 | 1026.7 |
| 20260906053030 | 24 | 346 | 3.2 | 11.3 | 0.00 | 0.00 | 0.00 | 37 | 1026.6 |
| 20260906051532 | 23 | 342 | 4.8 | 9.7 | 0.00 | 0.00 | 0.00 | 38 | 1026.5 |
| 20260906050023 | 23 | 328 | 6.4 | 11.3 | 0.00 | 0.00 | 0.00 | 37 | 1026.4 |
| 20260906044516 | 22 | 345 | 4.8 | 11.3 | 0.00 | 0.00 | 0.00 | 35 | 1026.4 |
| 20260906043025 | 22 | 332 | 3.2 | 6.4 | 0.00 | 0.00 | 0.00 | 35 | 1026.3 |
| 20260906041529 | 22 | 317 | 3.2 | 4.8 | 0.00 | 0.00 | 0.00 | 34 | 1026.4 |
| 20260906040037 | 22 | 25 | 1.6 | 6.4 | 0.00 | 0.00 | 0.00 | 34 | 1026.3 |
| 20260906034514 | 22 | 304 | 4.8 | 6.4 | 0.00 | 0.00 | 0.00 | 33 | 1026.1 |
| 20260906033024 | 22 | 337 | 1.6 | 3.2 | 0.00 | 0.00 | 0.00 | 36 | 1026.3 |
| 20260906031529 | 22 | 330 | 0.0 | 4.8 | 0.00 | 0.00 | 0.00 | 34 | 1026.2 |
| 20260906030007 | 22 | 309 | 1.6 | 4.8 | 0.00 | 0.00 | 0.00 | 34 | 1026.2 |
| 20260906024510 | 22 | 328 | 3.2 | 6.4 | 0.00 | 0.00 | 0.00 | 34 | 1026.3 |
| 20260906023013 | 22 | 328 | 3.2 | 6.4 | 0.00 | 0.00 | 0.00 | 34 | 1026.4 |
| 20260906021526 | 23 | 325 | 3.2 | 6.4 | 0.00 | 0.00 | 0.00 | 34 | 1026.4 |
| 20260906020031 | 22 | 338 | 4.8 | 8.0 | 0.00 | 0.00 | 0.00 | 33 | 1026.4 |
| 20260906014534 | 23 | 348 | 4.8 | 8.0 | 0.00 | 0.00 | 0.00 | 33 | 1026.3 |
| 20260906013011 | 22 | 330 | 3.2 | 8.0 | 0.00 | 0.00 | 0.00 | 33 | 1026.4 |
| 20260906011519 | 23 | 314 | 3.2 | 8.0 | 0.00 | 0.00 | 0.00 | 33 | 1026.6 |
| 20260906010026 | 22 | 330 | 4.8 | 8.0 | 0.00 | 0.00 | 0.00 | 35 | 1026.7 |
| 20260906004536 | 22 | 320 | 3.2 | 4.8 | 0.00 | 0.00 | 0.00 | 36 | 1026.7 |
| 20260906003030 | 22 | 333 | 3.2 | 6.4 | 0.00 | 0.00 | 0.00 | 37 | 1026.6 |
| 20260906001516 | 22 | 335 | 3.2 | 4.8 | 0.00 | 0.00 | 0.00 | 37 | 1026.7 |
| 20260906000019 | 21 | 335 | 3.2 | 4.8 | 0.00 | 0.00 | 0.00 | 41 | 1026.8 |
| 20260905234529 | 21 | 332 | 3.2 | 6.4 | 0.00 | 0.00 | 0.00 | 46 | 1027.0 |
| 20260905233030 | 21 | 347 | 0.0 | 1.6 | 0.00 | 0.00 | 0.00 | 50 | 1027.0 |
| 20260905231532 | 21 | 353 | 0.0 | 1.6 | 0.00 | 0.00 | 0.00 | 50 | 1027.1 |
| 20260905230019 | 21 | 319 | 1.6 | 3.2 | 0.00 | 0.00 | 0.00 | 47 | 1027.0 |
| 20260905224526 | 20 | 287 | 1.6 | 3.2 | 0.00 | 0.00 | 0.00 | 63 | 1027.1 |
| 20260905223030 | 21 | 303 | 3.2 | 6.4 | 0.00 | 0.00 | 0.00 | 58 | 1027.0 |
| 20260905221530 | 21 | 335 | 1.6 | 3.2 | 0.00 | 0.00 | 0.00 | 54 | 1027.2 |
| 20260905220033 | 21 | 345 | 1.6 | 3.2 | 0.00 | 0.00 | 0.00 | 50 | 1027.2 |
| 20260905214519 | 21 | 338 | 0.0 | 0.0 | 0.00 | 0.00 | 0.00 | 48 | 1027.1 |
| 20260905213026 | 21 | 350 | 0.0 | 1.6 | 0.00 | 0.00 | 0.00 | 48 | 1027.2 |
| 20260905211532 | 22 | 326 | 3.2 | 6.4 | 0.00 | 0.00 | 0.00 | 46 | 1027.1 |
| 20260905210042 | 22 | 322 | 3.2 | 8.0 | 0.00 | 0.00 | 0.00 | 48 | 1027.3 |
| 20260905204532 | 22 | 339 | 3.2 | 8.0 | 0.00 | 0.00 | 0.00 | 50 | 1027.2 |
| 20260905203020 | 21 | 326 | 3.2 | 9.7 | 0.00 | 0.00 | 0.00 | 50 | 1027.2 |
| 20260905201536 | 22 | 4 | 1.6 | 8.0 | 0.00 | 0.00 | 0.00 | 44 | 1027.3 |
| 20260905200039 | 22 | 339 | 3.2 | 8.0 | 0.00 | 0.00 | 0.00 | 45 | 1027.2 |
| 20260905194514 | 21 | 308 | 3.2 | 9.7 | 0.00 | 0.00 | 0.00 | 66 | 1027.2 |
| 20260905193027 | 21 | 292 | 6.4 | 8.0 | 0.00 | 0.00 | 0.00 | 68 | 1027.2 |
| 20260905191523 | 22 | 271 | 6.4 | 16.1 | 0.00 | 0.00 | 0.00 | 58 | 1027.0 |
| 20260905190011 | 23 | 324 | 6.4 | 12.9 | 0.00 | 0.00 | 0.00 | 42 | 1026.8 |
| 20260905184517 | 23 | 319 | 4.8 | 14.5 | 0.00 | 0.00 | 0.00 | 40 | 1026.6 |
| 20260905183024 | 23 | 319 | 1.6 | 11.3 | 0.00 | 0.00 | 0.00 | 42 | 1026.5 |
| 20260905181523 | 23 | 342 | 6.4 | 11.3 | 0.00 | 0.00 | 0.00 | 46 | 1026.5 |
| 20260905180029 | 23 | 334 | 6.4 | 11.3 | 0.00 | 0.00 | 0.00 | 46 | 1026.4 |
| 20260905174518 | 23 | 318 | 6.4 | 9.7 | 0.00 | 0.00 | 0.00 | 43 | 1026.4 |
| 20260905173009 | 24 | 341 | 4.8 | 9.7 | 0.00 | 0.00 | 0.00 | 44 | 1026.1 |
| 20260905171517 | 24 | 323 | 4.8 | 9.7 | 0.00 | 0.00 | 0.00 | 43 | 1026.2 |
| 20260905170023 | 25 | 335 | 3.2 | 8.0 | 0.00 | 0.00 | 0.00 | 42 | 1026.2 |
| 20260905164530 | 25 | 347 | 6.4 | 14.5 | 0.00 | 0.00 | 0.00 | 42 | 1026.3 |
| 20260905163009 | 25 | 1 | 8.0 | 17.7 | 0.00 | 0.00 | 0.00 | 47 | 1026.2 |
| 20260905161510 | 26 | 326 | 6.4 | 17.7 | 0.00 | 0.00 | 0.00 | 43 | 1026.3 |
| 20260905160027 | 27 | 309 | 4.8 | 16.1 | 0.00 | 0.00 | 0.00 | 40 | 1026.2 |
| 20260905154525 | 27 | 266 | 6.4 | 14.5 | 0.00 | 0.00 | 0.00 | 39 | 1026.3 |
| 20260905153030 | 28 | 49 | 4.8 | 9.7 | 0.00 | 0.00 | 0.00 | 37 | 1026.3 |
| 20260905151508 | 28 | 68 | 4.8 | 9.7 | 0.00 | 0.00 | 0.00 | 37 | 1026.3 |
| 20260905150024 | 28 | 60 | 1.6 | 12.9 | 0.00 | 0.00 | 0.00 | 39 | 1026.2 |
| 20260905144539 | 28 | 55 | 8.0 | 16.1 | 0.00 | 0.00 | 0.00 | 40 | 1026.1 |
| 20260905143029 | 28 | 46 | 8.0 | 17.7 | 0.00 | 0.00 | 0.00 | 42 | 1026.2 |
| 20260905141548 | 29 | 50 | 6.4 | 17.7 | 0.00 | 0.00 | 0.00 | 42 | 1026.2 |
| 20260905140010 | 29 | 15 | 4.8 | 16.1 | 0.00 | 0.00 | 0.00 | 43 | 1026.1 |
| 20260905134519 | 28 | 21 | 6.4 | 17.7 | 0.00 | 0.00 | 0.00 | 43 | 1026.2 |
| 20260905133039 | 28 | 51 | 8.0 | 14.5 | 0.00 | 0.00 | 0.00 | 43 | 1026.2 |
| 20260905131548 | 28 | 21 | 3.2 | 11.3 | 0.00 | 0.00 | 0.00 | 44 | 1026.3 |
| 20260905130031 | 28 | 359 | 3.2 | 14.5 | 0.00 | 0.00 | 0.00 | 43 | 1026.5 |
| 20260905124511 | 29 | 355 | 3.2 | 14.5 | 0.00 | 0.00 | 0.00 | 42 | 1026.6 |
| 20260905123019 | 30 | 80 | 6.4 | 17.7 | 0.00 | 0.00 | 0.00 | 37 | 1026.7 |
| 20260905121527 | 30 | 197 | 9.7 | 14.5 | 0.00 | 0.00 | 0.00 | 37 | 1026.8 |
| 20260905120029 | 30 | 96 | 4.8 | 16.1 | 0.00 | 0.00 | 0.00 | 35 | 1026.8 |
| 20260905114555 | 30 | 339 | 4.8 | 19.3 | 0.00 | 0.00 | 0.00 | 35 | 1026.8 |
| 20260905113017 | 30 | 271 | 8.0 | 20.9 | 0.00 | 0.00 | 0.00 | 36 | 1026.9 |
| 20260905111523 | 29 | 274 | 11.3 | 14.5 | 0.00 | 0.00 | 0.00 | 33 | 1027.1 |